Wind_Speed
12 3 6 10 8 8 4 4 7 17 10 4 9 12 12 7 18 17 25 27 23 24 22 26 22 29 21 17 18 19 18 20 17 15 17 18 20 19 14 12 9 6 7 8
4 7 13 11 6 7 7 5 15 12 17 9 17 19 2 8 2 18 18 13 16 16 24 20 25 21 25 20 20 15 13 14 12 11 11 10 12 12 9 8 9 12 9 5
7 14 8 11 6 5 12 5 12 12 10 6 2 6 3 4 11 13 7 7 14 22 19 11 17 26 27 19 13 13 12 11 12 11 12 11 12 10 10 11 10 11 6 5
7 14 13 19 7 6 5 18 15 16 4 4 6 4 2 4 6 9 4 1 8 16 21 17 24 26 20 15 15 14 12 14 13 12 12 10 11 10 9 8 11 8 6 9
14 8 8 10 15 6 9 15 8 3 1 2 7 5 3 4 3 3 4 7 17 10 13 21 20 16 13 17 18 15 13 12 14 11 11 10 10 9 11 13 13 8 8 8
10 10 6 8 10 6 6 3 7 4 3 4 5 5 4 0 3 5 8 17 14 9 15 17 7 3 11 19 19 17 14 13 12 11 10 12 13 12 13 13 12 10 10 9
7 7 8 3 4 6 11 6 3 4 4 5 3 3 4 4 1 2 6 8 7 13 24 13 11 16 22 23 22 20 17 14 12 9 10 10 12 12 11 10 10 10 10 8
3 5 7 4 3 2 4 5 4 6 4 5 4 3 3 6 6 11 10 5 5 10 22 24 14 12 22 21 24 22 18 16 12 8 11 14 12 7 7 7 8 11 9 8
4 5 4 5 2 5 3 5 5 4 1 2 2 2 2 4 5 8 5 3 5 9 18 23 19 11 24 22 28 22 17 14 10 9 9 10 9 4 4 2 10 11 9 9
6 2 2 1 4 2 4 3 4 3 2 3 5 3 4 2 2 3 6 3 7 7 15 29 28 25 14 30 24 20 14 9 11 10 9 11 9 3 2 4 10 4 6 7
3 3 5 5 2 5 7 5 4 4 4 5 2 5 5 5 2 4 2 2 4 8 9 6 9 12 29 30 27 20 13 14 14 14 14 11 8 4 3 5 8 6 4 4
2 5 1 7 8 4 5 5 4 4 5 3 4 5 3 3 2 5 4 3 6 11 12 9 13 25 30 31 24 20 16 13 14 16 15 13 9 4 5 8 5 5 4 5
3 2 3 10 7 5 2 4 2 3 3 4 4 4 3 5 6 3 4 6 8 11 12 16 25 24 27 26 19 19 14 14 16 18 16 16 9 5 6 5 3 6 7 9
6 4 7 7 8 3 6 7 3 5 3 4 5 4 1 2 3 7 7 9 6 5 10 18 15 11 20 26 25 18 16 14 20 19 19 13 5 6 5 3 6 7 9 12
4 6 5 6 8 5 7 11 11 7 6 6 4 7 6 6 6 7 9 7 11 12 13 12 12 13 14 15 13 18 17 17 18 18 15 6 2 2 5 9 10 10 12 13
1 4 6 5 8 8 10 13 10 6 4 6 6 2 6 9 7 9 12 13 15 16 14 13 11 7 8 8 8 8 9 15 7 3 5 4 5 10 12 14 16 14 15 15
5 5 3 4 3 3 6 7 6 4 2 7 6 6 9 5 9 13 14 15 17 21 18 13 5 8 6 5 6 14 10 8 12 12 9 11 14 15 16 16 14 13 14 14
3 3 2 3 2 1 6 5 6 5 2 6 6 9 12 13 15 9 11 15 15 16 15 9 6 10 13 12 16 14 13 14 13 12 14 13 13 13 11 12 14 17 20 22
6 3 2 2 2 5 1 4 3 2 5 6 9 7 16 14 10 11 17 14 13 10 10 11 11 11 15 15 14 14 17 16 14 12 11 10 11 13 15 18 19 20 20 19
5 2 5 3 3 4 3 8 25 11 6 10 14 16 18 17 5 6 25 21 17 15 21 23 18 19 18 17 15 14 12 10 9 8 9 11 13 15 16 17 18 19 20 19
4 2 6 3 3 4 3 12 15 3 9 20 28 28 26 12 20 23 24 22 20 23 27 26 24 21 17 14 13 12 11 10 8 8 10 12 15 17 17 18 18 19 17 11
5 5 4 2 2 6 15 9 6 6 11 14 22 22 34 33 26 22 31 30 30 29 27 26 25 20 16 13 10 8 7 5 7 9 11 12 14 15 16 16 13 8 8 8
2 4 2 4 6 6 11 10 13 10 6 11 12 3 13 26 30 34 38 36 33 29 26 22 18 16 13 10 8 5 4 7 10 12 11 11 12 13 11 7 4 7 10 11
5 9 4 2 5 13 19 16 14 15 19 15 9 3 6 31 37 39 37 33 28 22 20 15 15 14 11 6 4 5 8 10 11 13 12 12 13 10 7 7 8 7 8 11
3 9 4 6 9 11 18 21 16 13 16 13 10 19 18 34 34 38 33 27 23 20 18 16 13 10 6 3 5 7 10 11 14 17 15 9 8 6 8 10 13 10 7 10
5 7 5 6 15 6 4 5 7 8 6 7 10 9 23 36 37 31 29 28 26 24 21 17 10 5 3 1 5 6 10 15 18 16 9 8 10 11 14 16 14 10 6 7
Wind_Direction
256 58 246 239 214 222 216 238 261 281 260 205 250 267 280 267 154 155 165 175 159 149 162 182 324 337 198 182 187 191 202 209 217 232 236 232 222 218 229 230 211 213 195 215
345 253 237 227 235 272 280 260 276 281 268 173 254 264 73 11 140 152 169 164 150 162 189 219 301 193 210 201 187 193 211 218 224 231 219 213 210 210 207 190 176 179 183 217
199 249 262 234 252 218 267 245 271 240 283 228 105 303 120 39 103 74 127 172 209 209 206 268 184 181 196 191 192 189 196 200 192 178 185 186 190 193 193 182 200 189 188 231
223 262 231 254 248 177 251 264 237 252 45 295 144 276 41 63 59 36 349 272 265 249 262 240 185 179 187 172 176 169 182 177 185 186 196 198 217 203 193 190 187 182 201 252
263 265 259 252 244 236 236 275 230 282 345 59 336 79 311 355 85 305 345 267 277 255 175 176 182 192 175 161 165 171 173 180 176 191 188 187 202 195 190 190 199 206 220 251
243 269 202 235 245 217 239 37 46 43 85 30 273 123 288 343 298 350 5 25 65 148 170 179 157 194 187 173 175 186 174 188 180 189 194 209 215 200 188 188 198 212 233 257
317 312 294 326 358 357 39 45 351 356 350 226 200 71 219 170 74 89 57 34 112 171 162 162 219 211 206 187 180 190 181 187 175 173 183 183 178 189 185 198 221 216 236 240
161 345 1 345 97 290 295 134 151 236 221 255 302 175 252 147 160 120 113 140 179 201 207 218 210 229 190 183 188 192 181 171 167 163 187 198 176 195 214 228 261 281 270 247
154 242 290 77 193 145 298 339 199 145 325 53 215 313 300 173 139 150 154 138 231 231 230 216 233 160 162 180 192 182 165 174 164 154 172 172 151 92 45 300 299 289 256 268
205 257 250 320 36 264 136 237 337 12 257 271 286 182 207 322 261 18 357 155 156 159 217 223 240 251 221 196 178 172 167 162 153 158 172 167 183 200 345 352 330 301 248 258
161 122 277 60 330 261 318 330 56 125 140 186 241 257 198 203 154 292 307 195 225 176 141 181 216 214 171 176 171 166 162 156 174 190 201 202 203 233 314 325 341 329 314 316
318 141 288 237 268 242 222 202 140 125 258 217 165 268 222 186 169 250 176 144 127 147 121 134 156 158 159 171 170 171 166 175 188 199 207 209 220 271 317 329 345 11 358 340
195 352 26 342 346 350 352 314 151 121 75 201 150 260 23 146 121 190 176 179 184 169 133 121 128 153 169 168 174 174 182 196 198 203 208 209 222 258 292 290 344 4 1 358
138 148 159 199 221 211 294 303 204 152 146 209 217 166 96 126 164 154 202 182 176 175 163 156 159 165 187 182 187 189 200 197 213 208 211 210 228 288 275 301 331 334 346 339
108 192 186 239 248 251 277 285 287 198 196 165 210 185 179 192 201 191 185 194 202 189 163 150 129 117 142 174 179 200 210 205 186 182 186 202 201 309 322 324 315 323 325 320
88 242 190 249 233 260 287 285 288 165 132 88 127 159 176 168 170 166 168 166 178 178 157 149 156 131 155 148 140 165 158 147 130 196 129 166 239 254 265 270 272 279 282 284
182 186 142 248 258 310 305 257 177 114 130 144 179 203 160 173 177 190 172 175 172 175 175 168 177 234 252 212 154 153 163 173 172 183 182 217 233 245 257 262 264 260 270 283
190 148 163 227 352 249 247 354 134 122 141 115 97 154 172 178 188 187 182 184 191 192 191 175 183 200 165 168 186 180 176 190 200 203 208 219 231 237 242 253 269 279 286 292
128 139 277 154 197 273 201 25 9 119 241 189 154 175 178 170 169 210 198 188 184 198 199 204 206 197 182 179 182 197 198 198 198 204 221 241 259 277 289 290 291 294 300 310
151 89 153 157 186 236 200 31 55 51 326 210 177 182 175 164 169 236 199 201 206 196 183 185 197 187 190 184 185 193 203 217 230 248 269 282 290 292 293 297 301 303 305 306
152 249 195 202 203 286 133 110 97 75 250 196 193 188 178 187 198 197 189 194 195 187 184 189 186 186 189 194 211 226 232 238 256 277 288 296 299 300 300 303 307 308 309 310
201 173 218 137 144 258 177 169 172 215 297 196 202 206 195 200 206 194 185 181 178 172 174 180 187 196 203 214 231 231 240 277 296 302 305 304 301 306 311 311 309 311 311 305
146 122 356 173 225 270 179 228 223 216 230 197 199 357 223 202 186 180 170 170 175 175 176 181 191 193 206 219 231 250 286 312 321 322 320 313 311 320 323 317 337 342 338 330
223 178 168 104 234 216 215 226 244 249 247 239 219 117 323 184 174 173 169 171 172 176 180 194 202 206 204 222 259 312 337 338 342 341 333 322 321 327 318 308 325 336 340 329
168 108 213 261 285 274 244 235 262 266 254 245 231 212 204 191 173 165 157 161 168 175 178 183 189 182 183 249 306 330 331 330 335 340 339 340 332 331 324 326 325 319 324 326
164 193 184 221 237 197 220 246 208 227 198 235 258 221 168 181 165 167 168 167 166 164 163 156 153 162 168 262 311 309 308 320 338 338 351 336 336 331 322 320 316 294 299 309
Height
1518 1527 1535 1525 1521 1517 1521 1526 1530 1513 1507 1512 1510 1504 1496 1498 1499 1499 1498 1501 1500 1501 1504 1499 1487 1513 1521 1520 1525 1528 1533 1535 1537 1538 1538 1539 1539 1541 1543 1544 1544 1546 1546 1546
1523 1531 1513 1512 1513 1515 1517 1525 1523 1513 1499 1508 1500 1502 1500 1500 1500 1499 1500 1505 1507 1510 1503 1503 1498 1502 1508 1519 1524 1526 1531 1535 1535 1536 1539 1542 1544 1542 1544 1543 1542 1543 1545 1547
1526 1514 1507 1512 1510 1516 1515 1521 1516 1517 1500 1495 1498 1510 1501 1504 1504 1508 1506 1506 1510 1512 1510 1508 1501 1506 1512 1514 1521 1524 1530 1533 1533 1535 1539 1538 1541 1546 1546 1544 1542 1542 1543 1544
1517 1508 1509 1505 1510 1507 1525 1493 1501 1505 1506 1523 1499 1534 1509 1511 1513 1512 1515 1511 1511 1514 1513 1512 1511 1509 1511 1514 1523 1524 1526 1529 1532 1534 1537 1537 1542 1542 1545 1547 1543 1542 1542 1542
1511 1507 1508 1508 1502 1495 1507 1493 1497 1492 1501 1508 1507 1524 1523 1516 1520 1523 1518 1508 1504 1511 1509 1513 1513 1515 1516 1519 1523 1525 1523 1529 1531 1534 1535 1536 1541 1541 1542 1545 1547 1543 1540 1539
1502 1497 1497 1494 1490 1491 1491 1491 1497 1504 1513 1537 1516 1523 1531 1526 1525 1520 1516 1504 1498 1508 1513 1511 1511 1516 1518 1520 1523 1526 1522 1527 1529 1532 1534 1537 1541 1540 1539 1543 1545 1542 1539 1536
1502 1499 1490 1487 1492 1488 1493 1511 1538 1539 1542 1540 1511 1523 1522 1520 1519 1517 1510 1504 1501 1503 1502 1506 1505 1509 1516 1518 1525 1525 1521 1523 1526 1528 1533 1537 1540 1539 1539 1541 1543 1539 1535 1533
1521 1525 1496 1489 1494 1500 1499 1510 1536 1547 1549 1534 1509 1529 1519 1514 1515 1515 1512 1507 1503 1502 1499 1491 1498 1503 1513 1509 1518 1523 1520 1521 1524 1527 1532 1537 1539 1539 1538 1539 1540 1538 1534 1532
1518 1515 1491 1489 1490 1494 1500 1516 1501 1519 1522 1533 1522 1522 1514 1514 1513 1515 1514 1510 1506 1501 1499 1497 1494 1501 1489 1508 1518 1521 1519 1522 1525 1530 1533 1537 1537 1537 1537 1537 1539 1534 1532 1530
1500 1515 1493 1488 1489 1492 1495 1495 1516 1524 1534 1539 1528 1520 1522 1516 1512 1510 1508 1508 1505 1501 1499 1496 1491 1492 1498 1505 1516 1519 1522 1521 1524 1530 1535 1533 1534 1535 1536 1533 1537 1533 1531 1530
1493 1504 1504 1489 1499 1502 1499 1507 1507 1514 1526 1538 1543 1531 1510 1510 1510 1509 1507 1506 1504 1503 1499 1494 1489 1488 1495 1509 1513 1518 1520 1521 1524 1529 1533 1532 1532 1532 1532 1532 1533 1531 1529 1527
1493 1504 1513 1505 1490 1489 1492 1495 1503 1526 1521 1523 1529 1526 1502 1505 1509 1507 1506 1504 1502 1502 1501 1497 1494 1493 1501 1507 1513 1516 1519 1521 1523 1527 1528 1530 1531 1531 1531 1531 1532 1529 1528 1526
1490 1511 1528 1519 1504 1492 1492 1490 1491 1504 1511 1515 1527 1521 1503 1504 1508 1507 1505 1505 1504 1503 1504 1503 1502 1505 1508 1512 1512 1515 1518 1521 1522 1526 1527 1528 1529 1530 1531 1532 1530 1529 1527 1525
1487 1505 1513 1529 1512 1501 1503 1492 1490 1500 1519 1512 1512 1508 1506 1506 1506 1507 1506 1505 1504 1505 1506 1507 1508 1510 1512 1514 1515 1517 1520 1521 1524 1522 1524 1526 1526 1530 1530 1530 1528 1526 1523 1522
1487 1504 1503 1501 1497 1492 1493 1489 1485 1494 1494 1503 1499 1504 1505 1504 1503 1504 1505 1505 1503 1504 1507 1510 1510 1512 1514 1515 1515 1519 1521 1522 1521 1520 1522 1524 1525 1528 1528 1526 1524 1521 1520 1519
1488 1500 1498 1498 1489 1489 1489 1482 1479 1480 1487 1494 1498 1503 1498 1499 1500 1501 1502 1503 1503 1505 1508 1508 1511 1512 1514 1515 1515 1517 1520 1522 1521 1520 1519 1522 1523 1525 1522 1521 1519 1517 1516 1515
1495 1498 1502 1506 1488 1488 1497 1479 1475 1482 1482 1487 1502 1494 1495 1499 1497 1497 1499 1501 1502 1504 1506 1507 1508 1510 1511 1512 1514 1517 1518 1518 1517 1517 1517 1519 1520 1518 1516 1516 1515 1513 1512 1510
1492 1495 1500 1503 1498 1512 1483 1472 1471 1478 1483 1484 1487 1490 1491 1493 1493 1494 1496 1498 1500 1502 1504 1506 1507 1509 1509 1509 1511 1513 1514 1514 1515 1514 1516 1516 1514 1513 1512 1511 1510 1509 1506 1504
1479 1493 1504 1506 1510 1491 1481 1481 1486 1484 1492 1484 1487 1490 1490 1492 1493 1494 1493 1493 1496 1498 1501 1505 1506 1506 1507 1508 1509 1511 1512 1513 1513 1512 1512 1511 1511 1509 1507 1506 1504 1502 1500 1498
1476 1479 1499 1506 1505 1505 1493 1488 1480 1478 1500 1483 1481 1486 1485 1489 1498 1489 1489 1492 1492 1493 1495 1498 1501 1504 1505 1507 1508 1510 1510 1510 1510 1510 1509 1508 1506 1504 1502 1500 1499 1497 1495 1494
1486 1492 1496 1503 1498 1489 1486 1485 1481 1507 1491 1467 1472 1475 1477 1479 1475 1478 1485 1489 1491 1492 1493 1495 1499 1502 1504 1505 1506 1507 1507 1506 1505 1505 1505 1504 1502 1501 1499 1498 1496 1493 1491 1490
1485 1493 1495 1492 1495 1495 1472 1481 1484 1474 1467 1464 1471 1472 1470 1469 1472 1473 1477 1482 1488 1489 1491 1494 1497 1499 1500 1502 1503 1503 1502 1503 1503 1503 1501 1500 1499 1499 1497 1494 1492 1490 1490 1489
1489 1489 1492 1486 1487 1468 1465 1465 1465 1466 1465 1465 1466 1468 1465 1469 1467 1469 1473 1478 1484 1487 1489 1490 1494 1495 1497 1498 1498 1499 1499 1501 1502 1501 1499 1497 1497 1497 1494 1492 1490 1488 1487 1486
1480 1470 1473 1479 1463 1464 1461 1462 1462 1461 1460 1461 1462 1459 1466 1465 1465 1467 1470 1474 1479 1483 1484 1489 1489 1491 1493 1494 1495 1497 1498 1499 1499 1499 1498 1495 1493 1493 1492 1491 1489 1487 1486 1484
1465 1467 1476 1474 1460 1459 1459 1457 1456 1457 1456 1457 1457 1455 1456 1462 1464 1466 1471 1476 1480 1482 1485 1485 1489 1486 1489 1491 1493 1494 1494 1495 1496 1497 1495 1493 1491 1490 1488 1488 1487 1485 1483 1481
1458 1464 1472 1466 1453 1451 1452 1452 1452 1454 1455 1456 1456 1457 1457 1458 1462 1468 1472 1474 1477 1480 1483 1486 1488 1488 1490 1491 1492 1491 1491 1492 1493 1493 1492 1491 1490 1488 1487 1485 1483 1482 1480 1478